Weather reports worldwide

Advertisment
Shap, United Kingdom (3225): temperature & dewpoint: 10.08.2018 17:00:00 - 16.08.2018 17:00:00 (BST)Shap, United Kingdom (3225): temperature -20cm & temperature -100cm: 10.08.2018 17:00:00 - 16.08.2018 17:00:00 (BST)Shap, United Kingdom (3225): wind speed & gusts: 10.08.2018 17:00:00 - 16.08.2018 17:00:00 (BST)Shap, United Kingdom (3225): wind direction: 10.08.2018 17:00:00 - 16.08.2018 17:00:00 (BST)Shap, United Kingdom (3225): reduced air pressure: 10.08.2018 17:00:00 - 16.08.2018 17:00:00 (BST)Shap, United Kingdom (3225): visibility: 10.08.2018 17:00:00 - 16.08.2018 17:00:00 (BST)Shap, United Kingdom (3225): sunshine duration: 10.08.2018 17:00:00 - 16.08.2018 17:00:00 (BST)Shap, United Kingdom (3225): precipitation: 10.08.2018 17:00:00 - 16.08.2018 17:00:00 (BST)
Date & Time tt [°C] td [°C] tt -20cm [°C] tt -100cm [°C] ff [km/h] ff [kn] fx [km/h] fx [kn] dd ppp [hPa] vv [km] sd [min] rr [mm]
16.08.2018 17:00:00 13,3 10,1 - - 29 16 - - SW 1010,1 30 6 0,0
16.08.2018 16:00:00 14,3 10,1 - - 26 14 - - SW 1009,6 50 18 0,2
16.08.2018 15:00:00 13,8 10,3 - - 24 13 - - WSW 1009,5 40 6 0,2
16.08.2018 14:00:00 12,9 10,1 - - 18 10 - - WSW 1009,1 30 0 0,6
16.08.2018 13:00:00 14,0 9,5 - - 16 9 48 26 WSW 1008,7 50 18 0,2
16.08.2018 12:00:00 15,0 10,0 - - 22 12 - - WSW 1008,2 50 24 0,0
16.08.2018 11:00:00 13,2 9,7 - - 18 10 - - WSW 1008,5 5 0 0,0
16.08.2018 10:00:00 12,8 9,7 16,7 15,2 16 9 - - SW 1008,5 13 24 0,0
16.08.2018 09:00:00 12,5 8,5 - - 15 8 - - SW 1008,6 19 24 0,0
16.08.2018 08:00:00 11,2 8,4 - - 18 10 - - SW 1008,3 19 0 0,0
16.08.2018 07:00:00 11,4 8,7 - - 8 4 - - SW 1007,7 35 0 0,0
16.08.2018 06:00:00 12,7 9,2 - - 8 4 - - SSW 1007,0 45 0 0,0
16.08.2018 05:00:00 12,8 10,1 - - 8 4 - - WSW 1006,7 50 0 0,0
16.08.2018 04:00:00 13,6 11,9 - - 18 10 - - WSW 1006,6 40 0 0,8
16.08.2018 03:00:00 14,0 12,8 - - 16 9 54 29 WSW 1006,7 6 0 4,0
16.08.2018 02:00:00 15,0 13,9 - - 28 15 50 27 SW 1007,0 0,7 0 6,0
16.08.2018 01:00:00 15,5 14,2 - - 34 18 52 28 SW 1007,3 28 - 1,0
16.08.2018 00:00:00 15,9 14,9 - - 37 20 61 33 SW 1007,6 7 0 1,6
15.08.2018 23:00:00 15,6 14,9 - - 22 12 - - SW 1007,8 9 0 0,8
15.08.2018 22:00:00 14,8 13,8 - - 13 7 46 25 WSW 1008,6 50 0 1,0
15.08.2018 21:00:00 15,1 13,9 - - 16 9 - - SW 1008,4 4,4 0 2,2
15.08.2018 20:00:00 16,1 14,8 - - 29 16 57 31 SW 1008,5 10 0 3,6
15.08.2018 19:00:00 16,5 15,7 - - 35 19 57 31 SW 1008,6 1,5 0 3,2
15.08.2018 18:00:00 16,8 15,8 - - 34 18 63 34 SW 1008,8 2,8 0 2,8
15.08.2018 17:00:00 16,9 15,6 - - 41 22 63 34 SW 1009,3 1,5 0 3,0
15.08.2018 16:00:00 17,2 16,1 - - 34 18 52 28 SW 1009,7 2,1 6 1,8
15.08.2018 15:00:00 16,7 15,9 - - 31 17 54 29 SW 1010,7 22 0 0,2
15.08.2018 14:00:00 16,0 15,5 - - 29 16 54 29 SW 1011,4 9 0 0,0
15.08.2018 13:00:00 17,0 15,7 - - 28 15 48 26 SW 1011,2 6 0 0,8
15.08.2018 12:00:00 16,8 15,5 - - 29 16 54 29 SW 1011,4 3,4 0 0,4
15.08.2018 11:00:00 16,5 15,4 - - 28 15 - - SW 1011,7 8 0 0,0
15.08.2018 10:00:00 16,1 15,0 16,7 15,2 24 13 48 26 SW 1011,9 35 0 0,2
15.08.2018 09:00:00 15,6 14,7 - - 31 17 - - SSW 1012,1 2,3 0 0,2
15.08.2018 08:00:00 15,5 14,4 - - 26 14 50 27 SSW 1012,0 10 0 0,2
15.08.2018 07:00:00 15,5 14,3 - - 29 16 48 26 SW 1012,1 8 0 0,0
15.08.2018 06:00:00 15,5 14,0 - - 29 16 50 27 SW 1012,1 25 0 0,0
15.08.2018 05:00:00 15,5 13,9 - - 22 12 - - SW 1012,5 12 0 0,0
15.08.2018 04:00:00 15,8 14,1 - - 16 9 - - SW 1012,8 27 0 0,0
15.08.2018 03:00:00 15,9 14,7 - - 24 13 54 29 SW 1013,1 1,7 0 0,2
15.08.2018 02:00:00 15,9 14,7 - - 24 13 50 27 SW 1013,0 1,0 0 0,0
15.08.2018 01:00:00 16,0 14,6 - - 29 16 - - SW 1012,9 2,7 - 0,0
15.08.2018 00:00:00 16,1 14,6 - - 16 9 - - SW 1013,5 30 0 0,0
14.08.2018 23:00:00 16,0 14,6 - - 15 8 - - W 1013,7 16 0 0,0
14.08.2018 22:00:00 15,6 14,0 - - 11 6 - - WSW 1013,8 35 0 0,0
14.08.2018 21:00:00 15,9 14,5 - - 15 8 - - WSW 1013,8 29 0 0,0
14.08.2018 20:00:00 15,5 14,5 - - 21 11 - - WSW 1013,5 13 0 0,0
14.08.2018 19:00:00 15,6 14,1 - - 26 14 - - SW 1013,8 18 0 0,0
14.08.2018 18:00:00 16,2 14,0 - - 22 12 - - SW 1013,8 30 6 0,0
14.08.2018 17:00:00 17,5 14,6 - - 16 9 - - SW 1013,5 50 0 0,0
14.08.2018 16:00:00 16,6 14,6 - - 9 5 - - SW 1013,7 45 0 0,0
14.08.2018 15:00:00 15,6 14,4 - - 21 11 - - SW 1013,7 16 0 0,0
14.08.2018 14:00:00 16,3 14,1 - - 22 12 - - SW 1013,6 35 0 0,0
14.08.2018 13:00:00 16,1 14,4 - - 16 9 - - SW 1013,2 13 0 0,0
14.08.2018 12:00:00 16,0 13,8 - - 18 10 - - SW 1013,4 45 0 0,0
14.08.2018 11:00:00 16,5 13,9 - - 16 9 - - SW 1013,1 50 0 0,0
14.08.2018 10:00:00 16,3 13,9 17,0 15,0 16 9 - - SW 1012,8 50 0 0,0
14.08.2018 09:00:00 15,3 13,5 - - 15 8 - - SW 1012,9 50 12 0,0
14.08.2018 08:00:00 14,6 12,8 - - 15 8 - - SW 1012,7 40 0 0,0
14.08.2018 07:00:00 13,9 12,5 - - 13 7 - - SW 1012,5 40 0 0,0
14.08.2018 06:00:00 13,0 11,7 - - 15 8 - - SSW 1012,4 50 0 0,0
14.08.2018 05:00:00 13,3 11,6 - - 11 6 - - SW 1012,5 50 0 0,0
14.08.2018 04:00:00 12,2 11,0 - - 4 2 - - SW 1012,5 50 0 0,0
14.08.2018 03:00:00 11,3 10,5 - - 2 1 - - W 1012,7 50 0 0,0
14.08.2018 02:00:00 11,7 10,5 - - 2 1 - - SSW 1012,5 50 0 0,0
14.08.2018 01:00:00 13,4 12,8 - - 2 1 - - S 1011,9 1,8 - 0,0
14.08.2018 00:00:00 13,0 12,5 - - 2 1 - - SSW 1011,6 29 0 0,0
13.08.2018 23:00:00 11,5 10,2 - - 5 3 - - SSW 1011,1 1,2 0 0,0
13.08.2018 22:00:00 15,6 12,7 - - 11 6 - - NW 1010,1 50 0 0,0
13.08.2018 21:00:00 16,4 13,2 - - 4 2 - - SW 1009,7 50 0 0,0
13.08.2018 20:00:00 18,9 13,8 - - 8 4 - - WNW 1008,9 50 42 0,0
13.08.2018 19:00:00 18,2 13,8 - - 9 5 - - NW 1008,3 50 36 0,0
13.08.2018 18:00:00 19,8 14,4 - - 15 8 - - NW 1007,9 50 42 0,0
13.08.2018 17:00:00 20,9 14,7 - - 15 8 - - WNW 1007,2 50 30 0,0
13.08.2018 16:00:00 20,1 14,5 - - 15 8 - - NNW 1007,0 50 24 0,0
13.08.2018 15:00:00 19,9 15,8 - - 15 8 - - NNW 1007,0 50 12 0,0
13.08.2018 14:00:00 19,4 16,2 - - 18 10 - - NW 1006,8 50 18 0,0
13.08.2018 13:00:00 19,0 17,6 - - 9 5 - - N 1006,5 23 12 0,2
13.08.2018 12:00:00 19,4 15,8 - - 5 3 - - NNW 1006,2 50 30 0,0
13.08.2018 11:00:00 17,3 16,2 - - 8 4 - - NNW 1006,3 22 0 0,0
13.08.2018 10:00:00 17,1 15,8 16,7 15,0 5 3 - - N 1006,1 18 0 0,0
13.08.2018 09:00:00 16,7 15,9 - - 4 2 - - N 1006,0 50 0 0,0
13.08.2018 08:00:00 15,9 15,6 - - 0 0 - - N 1005,8 30 0 0,0
13.08.2018 07:00:00 15,4 15,0 - - 0 0 - - N 1005,4 12 0 0,0
13.08.2018 06:00:00 15,3 14,9 - - 0 0 - - N 1005,0 12 0 0,0
13.08.2018 05:00:00 15,2 14,8 - - 2 1 - - W 1005,0 18 0 0,0
13.08.2018 04:00:00 15,2 14,6 - - 4 2 - - W 1005,0 24 0 0,0
13.08.2018 03:00:00 15,5 14,6 - - 5 3 - - S 1005,1 0,9 0 0,4
13.08.2018 02:00:00 16,1 14,6 - - 5 3 - - SSE 1005,2 1,3 0 0,0
13.08.2018 01:00:00 16,3 14,8 - - 9 5 - - S 1005,4 50 - 0,0
13.08.2018 00:00:00 16,3 15,2 - - 9 5 - - SSW 1005,6 7 0 0,0
12.08.2018 23:00:00 16,7 15,5 - - 9 5 - - S 1005,4 19 0 0,0
12.08.2018 22:00:00 16,8 15,3 - - 8 4 - - SSE 1005,6 45 0 0,0
12.08.2018 21:00:00 17,4 15,3 - - 5 3 - - S 1005,5 50 0 0,0
12.08.2018 20:00:00 17,8 16,0 - - 9 5 - - SSE 1005,3 50 0 0,0
12.08.2018 19:00:00 17,9 16,0 - - 15 8 - - SSW 1005,3 15 0 0,0
12.08.2018 18:00:00 19,2 16,4 - - 13 7 - - SSE 1005,4 50 0 0,0
12.08.2018 17:00:00 19,4 16,9 - - 9 5 - - S 1005,7 45 0 0,0
12.08.2018 16:00:00 18,0 16,2 - - 8 4 - - SSW 1006,2 35 0 0,6
12.08.2018 15:00:00 18,3 15,4 - - 15 8 - - S 1006,4 10 6 0,0
12.08.2018 14:00:00 19,4 15,6 - - 15 8 - - S 1006,5 50 0 0,0
12.08.2018 13:00:00 17,9 16,2 - - 16 9 - - SSW 1006,8 45 12 0,0
12.08.2018 12:00:00 18,8 16,0 - - 21 11 - - SW 1006,7 50 24 0,0
12.08.2018 11:00:00 16,7 15,2 - - 16 9 - - SSW 1007,3 30 0 0,0
12.08.2018 10:00:00 16,4 14,9 16,2 15,2 24 13 - - SW 1007,1 35 0 0,0
12.08.2018 09:00:00 16,1 15,2 - - 21 11 - - SSW 1007,1 35 0 0,4
12.08.2018 08:00:00 15,5 14,9 - - 18 10 - - S 1007,4 6 0 1,0
12.08.2018 07:00:00 15,4 14,9 - - 9 5 - - SSE 1007,4 3,6 0 0,2
12.08.2018 06:00:00 15,3 14,7 - - 8 4 - - ESE 1007,4 6 0 0,6
12.08.2018 05:00:00 15,2 14,7 - - 16 9 - - S 1007,8 3,2 0 0,6
12.08.2018 04:00:00 15,2 14,6 - - 13 7 - - SSE 1008,4 4,3 0 4,0
12.08.2018 03:00:00 15,3 14,7 - - 13 7 - - S 1009,3 5 0 0,4
12.08.2018 02:00:00 15,0 14,4 - - 15 8 - - S 1009,9 2,4 0 0,8
12.08.2018 01:00:00 14,7 14,2 - - 15 8 - - S 1010,9 4,1 - 0,6
12.08.2018 00:00:00 14,5 14,0 - - 13 7 - - S 1011,7 3,6 0 1,6
11.08.2018 23:00:00 13,8 13,4 - - 13 7 - - SSE 1012,6 3,3 0 0,8
11.08.2018 22:00:00 13,2 12,6 - - 9 5 - - SSE 1013,5 3,1 0 0,6
11.08.2018 21:00:00 13,5 12,3 - - 15 8 - - S 1014,5 4,7 0 0,4
11.08.2018 20:00:00 16,0 10,4 - - 22 12 - - S 1014,6 50 0 0,0
11.08.2018 19:00:00 17,3 8,7 - - 16 9 - - S 1014,9 50 0 0,0
11.08.2018 18:00:00 17,7 8,7 - - 13 7 - - SSW 1015,6 50 0 0,0
11.08.2018 17:00:00 17,2 8,9 - - 13 7 - - S 1016,4 50 0 0,0
11.08.2018 16:00:00 17,3 8,5 - - 15 8 - - SSW 1017,2 50 42 0,0
11.08.2018 15:00:00 17,7 7,0 - - 21 11 - - S 1018,0 50 60 0,0
11.08.2018 14:00:00 17,5 7,9 - - 18 10 - - SSW 1018,5 50 30 0,0
11.08.2018 13:00:00 15,9 7,7 - - 16 9 - - SSW 1019,2 50 12 0,0
11.08.2018 12:00:00 15,6 9,5 - - 16 9 - - SW 1019,4 50 30 0,0
11.08.2018 11:00:00 15,0 8,5 - - 11 6 - - SW 1019,9 50 48 0,0
11.08.2018 10:00:00 14,0 8,4 16,0 15,2 11 6 - - WSW 1020,2 50 48 0,0
11.08.2018 09:00:00 13,8 8,4 - - 11 6 - - SW 1020,5 50 60 0,0
11.08.2018 08:00:00 12,8 7,7 - - 9 5 - - WSW 1020,5 50 60 0,0
11.08.2018 07:00:00 8,6 7,3 - - 5 3 - - SW 1021,1 50 36 0,0
11.08.2018 06:00:00 6,5 4,4 - - 4 2 - - SSW 1021,1 50 0 0,0
11.08.2018 05:00:00 6,9 5,4 - - 9 5 - - SSW 1021,0 50 0 0,0
11.08.2018 04:00:00 5,9 5,0 - - 5 3 - - SSW 1020,9 50 0 0,0
11.08.2018 03:00:00 5,2 3,9 - - 4 2 - - SW 1020,9 45 0 0,0
11.08.2018 02:00:00 6,7 5,9 - - 8 4 - - S 1020,6 50 0 0,0
11.08.2018 01:00:00 6,9 4,8 - - 2 1 - - W 1020,3 50 - 0,0
11.08.2018 00:00:00 9,5 6,6 - - 8 4 - - W 1019,6 50 0 0,0
10.08.2018 23:00:00 10,8 6,9 - - 9 5 - - WNW 1019,1 50 0 0,0
10.08.2018 22:00:00 10,7 7,7 - - 5 3 - - WSW 1018,7 50 0 0,0
10.08.2018 21:00:00 11,7 7,1 - - 8 4 - - W 1017,9 50 6 0,0
10.08.2018 20:00:00 13,9 7,2 - - 9 5 - - W 1017,0 50 30 0,0
10.08.2018 19:00:00 14,1 6,8 - - 9 5 - - WNW 1016,4 50 54 0,0
10.08.2018 18:00:00 14,3 5,8 - - 15 8 - - WNW 1015,9 50 54 0,0
10.08.2018 17:00:00 14,7 7,2 - - 13 7 - - WNW 1015,4 50 30 0,2

tt = temperature
td = dewpoint
tt -20cm = temperature -20cm
tt -100cm = temperature -100cm
ff = wind speed
fx = gusts
dd = wind direction
ppp = reduced air pressure
vv = visibility
sd = sunshine duration
rr = precipitation

Next stations